Location: Newark
(47.5833°N, 8.1500°E)
Time: 02:06:10
(UTC+00:00)

Transit 2A - Pass Details

Date: 05 November 2020
Orbit: 594 x 964 km, 66.7° (Epoch: 25 November)

Event Time Altitude Azimuth Distance (km) Brightness Sun altitude
Rises 00:28:19 0° 251° (WSW) 3,645 - -54.4°
Reaches altitude 10° 00:31:16 10° 263° (W) 2,695 - -54.1°
Maximum altitude 00:36:43 29° 322° (NW) 1,644 - -53.6°
Drops below altitude 10° 00:41:59 10° 22° (NNE) 2,589 - -53.1°
Exits shadow 00:43:28 - 29° (NNE) 3,052 9.6 -52.9°
Sets 00:44:46 0° 33° (NNE) 3,480 10.0 -52.8°
